TimeEDT,TemperatureF,Dew PointF,Humidity,Sea Level PressureIn,VisibilityMPH,Wind Direction,Wind SpeedMPH,Gust SpeedMPH,PrecipitationIn,Events,Conditions,WindDirDegrees,DateUTC
12:53 AM,66.0,53.1,63,30.22,10.0,NNE,4.6,-,N/A,,Scattered Clouds,20,2013-08-24 04:53:00
1:53 AM,64.9,55.0,70,30.22,10.0,NE,3.5,-,N/A,,Partly Cloudy,40,2013-08-24 05:53:00
2:53 AM,63.0,55.9,78,30.22,10.0,North,4.6,-,N/A,,Clear,10,2013-08-24 06:53:00
3:53 AM,63.0,57.0,81,30.23,10.0,North,3.5,-,N/A,,Clear,10,2013-08-24 07:53:00
4:53 AM,62.1,57.0,84,30.25,10.0,NNE,3.5,-,N/A,,Clear,20,2013-08-24 08:53:00
5:53 AM,62.1,55.9,80,30.26,10.0,NNW,3.5,-,N/A,,Clear,340,2013-08-24 09:53:00
6:53 AM,60.1,55.9,86,30.28,10.0,NNW,3.5,-,N/A,,Partly Cloudy,340,2013-08-24 10:53:00
7:53 AM,63.0,57.0,81,30.30,10.0,North,3.5,-,N/A,,Scattered Clouds,10,2013-08-24 11:53:00
8:53 AM,66.9,60.1,79,30.32,10.0,ENE,3.5,-,N/A,,Scattered Clouds,70,2013-08-24 12:53:00
9:53 AM,72.0,61.0,68,30.32,10.0,Calm,Calm,-,N/A,,Scattered Clouds,0,2013-08-24 13:53:00
10:53 AM,75.0,60.1,60,30.33,10.0,SSE,4.6,-,N/A,,Scattered Clouds,160,2013-08-24 14:53:00
11:53 AM,79.0,57.0,47,30.32,10.0,Calm,Calm,-,N/A,,Mostly Cloudy,0,2013-08-24 15:53:00
12:53 PM,78.1,57.0,48,30.31,10.0,SSE,6.9,-,N/A,,Mostly Cloudy,150,2013-08-24 16:53:00
1:53 PM,78.1,57.0,48,30.30,10.0,SE,8.1,-,N/A,,Mostly Cloudy,130,2013-08-24 17:53:00
2:53 PM,80.1,57.0,45,30.29,10.0,East,8.1,-,N/A,,Mostly Cloudy,100,2013-08-24 18:53:00
3:53 PM,79.0,55.9,45,30.29,10.0,SSE,6.9,-,N/A,,Scattered Clouds,160,2013-08-24 19:53:00
4:53 PM,79.0,57.0,47,30.28,10.0,SE,11.5,-,N/A,,Scattered Clouds,140,2013-08-24 20:53:00
5:53 PM,78.1,57.0,48,30.29,10.0,SE,9.2,-,N/A,,Scattered Clouds,130,2013-08-24 21:53:00
6:53 PM,75.9,55.9,50,30.28,10.0,SE,6.9,-,N/A,,Scattered Clouds,130,2013-08-24 22:53:00
7:53 PM,73.9,57.0,55,30.29,10.0,SE,5.8,-,N/A,,Scattered Clouds,130,2013-08-24 23:53:00
8:53 PM,72.0,55.9,57,30.30,10.0,ESE,5.8,-,N/A,,Partly Cloudy,110,2013-08-25 00:53:00
9:53 PM,70.0,57.0,63,30.30,10.0,Calm,Calm,-,N/A,,Partly Cloudy,0,2013-08-25 01:53:00
10:53 PM,69.1,57.9,68,30.30,10.0,East,4.6,-,N/A,,Partly Cloudy,100,2013-08-25 02:53:00
11:53 PM,66.9,59.0,76,30.30,10.0,East,3.5,-,N/A,,Partly Cloudy,80,2013-08-25 03:53:00